Location: Mahannah Oil Field
(37.4664°N, 96.6003°W)
Time: 14:51:45
(UTC+00:00)

A-11 Canister half - Pass Details

Date: 23 January 2021
Orbit: 1525 x 1684 km, 47.3° (Epoch: 05 March)

Event Time Altitude Azimuth Distance (km) Brightness Sun altitude
Rises 01:11:02 0° 292° (WNW) 4,728 12.5 -18.0°
Reaches altitude 10° 01:14:13 10° 297° (WNW) 3,763 11.8 -18.6°
Maximum altitude 01:23:30 51° 12° (NNE) 1,945 9.3 -20.4°
Enters shadow 01:28:14 31° 70° (ENE) 2,578 9.6 -21.4°
